Weather History for KIZG - February, 2013

Change the Weather History Date:

Friday, February 8, 2013

  Actual Average Record
Temperature  
Mean Temperature 11 °F -  
Max Temperature 14 °F - - ()
Min Temperature 8 °F - - ()
Degree Days  
Heating Degree Days 54    
Moisture  
Dew Point 6 °F    
Average Humidity 80    
Maximum Humidity 92    
Minimum Humidity 41    
Precipitation  
Precipitation 0.27 in - - ()
Sea Level Pressure  
Sea Level Pressure 30.31 in    
Wind  
Wind Speed 6 mph (NNE)    
Max Wind Speed 14 mph    
Max Gust Speed 22 mph    
Visibility 2 miles    
Events Fog , Snow    
T = Trace of Precipitation, MM = Missing Value Source: NWS Daily Summary

Daily Weather History Graph

Daily Weather History Graph

Search for Another Location

Airport or City:

Trip Planner

Search our weather history database for the weather conditions in past years. The results will help you decide how hot, cold, wet, or windy it might be!

Date:

Astronomy

Feb. 08, 2013 Rise Set
Actual Time 6:52 AM EST 5:04 PM EST
Civil Twilight 6:22 AM EST 5:34 PM EST
Nautical Twilight 5:48 AM EST 6:08 PM EST
Astronomical Twilight 5:14 AM EST 6:42 PM EST
Moon 5:20 AM EST (2/8) 3:32 PM EST (2/8)
Length of Visible Light 11h 12m
Length of Day
10h 11m
Waning Crescent, 3% of the Moon is Illuminated
Feb 8
Waning Crescent
Feb 10
New
Feb 17
First Quarter
Feb 25
Full
Mar 4
Last Quarter

Hourly Weather History & Observations

Time (EST) Temp. Windchill Dew Point Humidity Pressure Visibility Wind Dir Wind Speed Gust Speed Precip Events Conditions
12:54 AM 12.9 °F - -7.1 °F 41% 30.54 in 10.0 mi Calm Calm - N/A   Overcast
1:54 AM 12.9 °F - -7.1 °F 41% 30.54 in 10.0 mi Calm Calm - 0.00 in   Overcast
2:54 AM 12.0 °F - -2.0 °F 53% 30.52 in 10.0 mi Calm Calm - 0.00 in   Overcast
3:18 AM 12.2 °F 2.9 °F -0.4 °F 57% 30.49 in 10.0 mi NNE 5.8 mph - 0.00 in   Overcast
3:54 AM 10.9 °F 2.9 °F 1.0 °F 64% 30.51 in 10.0 mi NNE 4.6 mph - 0.00 in   Overcast
4:30 AM 8.6 °F -1.3 °F 1.4 °F 73% 30.47 in 2.0 mi NNE 5.8 mph - 0.00 in Snow Light Snow
4:39 AM 8.6 °F -1.3 °F 1.4 °F 73% 30.47 in 1.5 mi NNE 5.8 mph - 0.00 in Snow Light Snow
4:47 AM 8.6 °F -1.3 °F 3.2 °F 79% 30.47 in 1.2 mi North 5.8 mph - 0.00 in Snow Light Snow
4:54 AM 9.0 °F -3.2 °F 3.9 °F 80% 30.50 in 1.2 mi NE 8.1 mph - 0.00 in Snow Light Snow
5:27 AM 8.6 °F 0.1 °F 3.2 °F 79% 30.46 in 1.5 mi NE 4.6 mph - 0.00 in Snow Light Snow
5:36 AM 8.6 °F 0.1 °F 3.2 °F 79% 30.46 in 1.5 mi NNE 4.6 mph - 0.00 in Snow Light Snow
5:54 AM 8.1 °F -0.5 °F 3.9 °F 83% 30.50 in 1.8 mi NNE 4.6 mph - 0.01 in Snow Light Snow
6:08 AM 8.6 °F 0.1 °F 3.2 °F 79% 30.46 in 1.2 mi NE 4.6 mph - 0.00 in Snow Light Snow
7:04 AM 8.6 °F 2.0 °F 3.2 °F 79% 30.45 in 1.5 mi NNE 3.5 mph - 0.00 in Snow Light Snow
7:28 AM 8.6 °F 2.0 °F 5.0 °F 85% 30.46 in 1.0 mi NNE 3.5 mph - 0.00 in Snow Light Snow
7:39 AM 8.6 °F 0.1 °F 3.2 °F 79% 30.46 in 0.8 mi North 4.6 mph - 0.00 in Snow Light Snow
7:54 AM 8.1 °F -3.2 °F 3.9 °F 83% 30.50 in 0.5 mi NNE 6.9 mph - 0.01 in Fog , Snow Snow
8:54 AM 9.0 °F -0.9 °F 5.0 °F 84% 30.49 in 0.8 mi NNE 5.8 mph - 0.01 in Snow Light Snow
9:13 AM 10.4 °F -0.4 °F 5.0 °F 79% 30.44 in 1.0 mi NNE 6.9 mph - 0.00 in Snow Light Snow
9:29 AM 10.4 °F -0.4 °F 5.0 °F 79% 30.44 in 0.8 mi NNE 6.9 mph - 0.01 in Snow Light Snow
9:43 AM 10.4 °F -0.4 °F 5.0 °F 79% 30.43 in 0.8 mi North 6.9 mph - 0.01 in Snow Light Snow
9:54 AM 10.9 °F 2.9 °F 6.1 °F 81% 30.46 in 1.0 mi North 4.6 mph - 0.01 in Snow Light Snow
10:15 AM 10.4 °F 0.8 °F 5.0 °F 79% 30.42 in 1.0 mi North 5.8 mph - 0.01 in Snow Light Snow
10:54 AM 10.9 °F -0.8 °F 6.1 °F 81% 30.44 in 1.5 mi North 8.1 mph - 0.01 in Snow Light Snow
11:12 AM 12.2 °F 4.3 °F 6.8 °F 79% 30.40 in 1.2 mi NNE 4.6 mph - 0.01 in Snow Light Snow
11:38 AM 12.2 °F 1.7 °F 6.8 °F 79% 30.38 in 0.8 mi North 6.9 mph - 0.01 in Snow Light Snow
11:54 AM 12.0 °F 1.5 °F 7.0 °F 80% 30.40 in 0.8 mi North 6.9 mph - 0.01 in Snow Light Snow
12:10 PM 12.2 °F 1.7 °F 6.8 °F 79% 30.37 in 1.0 mi North 6.9 mph - 0.01 in Snow Light Snow
12:27 PM 12.2 °F 2.9 °F 6.8 °F 79% 30.35 in 1.5 mi North 5.8 mph - 0.01 in Snow Light Snow
12:54 PM 12.9 °F 2.6 °F 7.0 °F 77% 30.37 in 1.5 mi North 6.9 mph - 0.01 in Snow Light Snow
1:54 PM 12.9 °F 2.6 °F 8.1 °F 81% 30.33 in 2.5 mi North 6.9 mph - 0.00 in Snow Light Snow
2:27 PM 14.0 °F 2.9 °F 8.6 °F 79% 30.28 in 3.0 mi NNE 8.1 mph - 0.00 in Snow Light Snow
2:35 PM 14.0 °F 1.2 °F 8.6 °F 79% 30.27 in 2.5 mi NNE 10.4 mph - 0.00 in Snow Light Snow
2:54 PM 14.0 °F 3.9 °F 9.0 °F 80% 30.29 in 2.0 mi NNE 6.9 mph - 0.00 in Snow Light Snow
3:03 PM 14.0 °F 2.9 °F 8.6 °F 79% 30.25 in 1.5 mi North 8.1 mph - 0.00 in Snow Light Snow
3:11 PM 14.0 °F 2.0 °F 8.6 °F 79% 30.25 in 1.2 mi North 9.2 mph - 0.00 in Snow Light Snow
3:24 PM 14.0 °F 2.9 °F 8.6 °F 79% 30.24 in 1.8 mi North 8.1 mph - 0.00 in Snow Light Snow
3:38 PM 14.0 °F 0.5 °F 10.4 °F 86% 30.23 in 1.0 mi NNE 11.5 mph - 0.00 in Snow Light Snow
3:46 PM 14.0 °F 3.9 °F 8.6 °F 79% 30.23 in 0.8 mi NNE 6.9 mph - 0.01 in Snow Light Snow
3:54 PM 14.0 °F 2.9 °F 9.0 °F 80% 30.27 in 0.8 mi NNE 8.1 mph - 0.01 in Snow Light Snow
4:54 PM 14.0 °F 2.0 °F 10.0 °F 84% 30.23 in 0.8 mi NNE 9.2 mph 17.3 mph 0.02 in Snow Light Snow
5:05 PM 14.0 °F 2.9 °F 10.4 °F 86% 30.20 in 1.0 mi NNE 8.1 mph 18.4 mph 0.01 in Snow Light Snow
5:54 PM 14.0 °F 2.9 °F 10.0 °F 84% 30.21 in 1.0 mi NNE 8.1 mph - 0.02 in Snow Light Snow
6:17 PM 14.0 °F 1.2 °F 10.4 °F 86% 30.16 in 1.5 mi North 10.4 mph - 0.01 in Snow Light Snow
6:47 PM 14.0 °F 0.5 °F 10.4 °F 86% 30.14 in 1.2 mi NNE 11.5 mph - 0.01 in Snow Light Snow
6:54 PM 14.0 °F 0.5 °F 10.0 °F 84% 30.17 in 1.2 mi NNE 11.5 mph 18.4 mph 0.01 in Snow Light Snow
7:05 PM 14.0 °F 0.5 °F 10.4 °F 86% 30.13 in 1.2 mi NNE 11.5 mph 19.6 mph 0.00 in Snow Light Snow
7:54 PM 14.0 °F 5.1 °F 10.0 °F 84% 30.14 in 1.2 mi North 5.8 mph - 0.02 in Snow Light Snow
8:17 PM 12.2 °F -1.8 °F 10.4 °F 92% 30.08 in 0.8 mi North 11.5 mph - 0.01 in Snow Light Snow
8:40 PM 12.2 °F -0.2 °F 10.4 °F 92% 30.07 in 1.0 mi North 9.2 mph - 0.02 in Snow Light Snow
8:54 PM 12.9 °F -2.2 °F 10.0 °F 88% 30.09 in 1.0 mi North 13.8 mph 21.9 mph 0.03 in Snow Light Snow
9:21 PM 12.2 °F -1.8 °F 10.4 °F 92% 30.04 in 0.8 mi North 11.5 mph - 0.01 in Snow Light Snow
9:50 PM 12.2 °F -1.0 °F 10.4 °F 92% 30.01 in 1.0 mi North 10.4 mph 19.6 mph 0.03 in Snow Light Snow
9:54 PM 12.9 °F -0.2 °F 10.0 °F 88% 30.04 in 1.0 mi North 10.4 mph 19.6 mph 0.03 in Snow Light Snow
10:03 PM 12.2 °F -3.1 °F 10.4 °F 92% 30.00 in 1.0 mi North 13.8 mph 18.4 mph 0.00 in Snow Light Snow
10:50 PM 12.2 °F -0.2 °F 10.4 °F 92% 29.96 in 0.8 mi North 9.2 mph 19.6 mph 0.02 in Snow Light Snow
10:54 PM 12.9 °F -0.9 °F 10.0 °F 88% 30.00 in 0.8 mi North 11.5 mph 17.3 mph 0.02 in Snow Light Snow
11:54 PM 12.9 °F -1.6 °F 9.0 °F 84% 29.95 in 0.8 mi North 12.7 mph 20.7 mph 0.04 in Snow Light Snow